Zurück zum Katalog

DELTA 1 R/B

AktivGTO
NORAD 862·ROCKET BODY·🇺🇸 United States

Gestartet Aug 19, 1964 von Cape Canaveral Space Force Station

Loading…

TLE

VeraltetSource: Space-Track

Epoche: Sep 13, 2026, 14:52 UTC

1 00862U 64047B   26256.61960512 -.00000438  00000-0  00000-0 0  9994
2 00862  16.6300 308.8911 7108651  71.9016 348.9630  2.05103645259977

Verfolge DELTA 1 R/B in Echtzeit mit AllMySat

Download on the App Store